Time,TemperatureF,DewpointF,PressureIn,WindDirection,WindDirectionDegrees,WindSpeedMPH,WindSpeedGustMPH,Humidity,HourlyPrecipIn,Conditions,Clouds,dailyrainin,SoftwareType,DateUTC
2013-11-14 00:13:00,35.3,18.0,30.31,WSW,257,1.0,6.0,49,0.00,,,0.00,weatherlink.com 1.10,2013-11-14 06:13:00,
2013-11-14 00:28:00,35.1,18.0,30.31,South,191,1.0,5.0,50,0.00,,,0.00,weatherlink.com 1.10,2013-11-14 06:28:00,
2013-11-14 00:43:00,34.6,18.0,30.30,SE,124,3.0,3.0,51,0.00,,,0.00,weatherlink.com 1.10,2013-11-14 06:43:00,
2013-11-14 00:58:00,34.3,18.0,30.30,West,273,2.0,4.0,51,0.00,,,0.00,weatherlink.com 1.10,2013-11-14 06:58:00,
2013-11-14 01:13:00,34.1,18.0,30.30,ESE,107,1.0,5.0,52,0.00,,,0.00,weatherlink.com 1.10,2013-11-14 07:13:00,
2013-11-14 01:28:00,33.8,18.0,30.30,SSW,195,1.0,3.0,53,0.00,,,0.00,weatherlink.com 1.10,2013-11-14 07:28:00,
2013-11-14 01:43:00,33.7,18.0,30.30,SE,143,1.0,4.0,53,0.00,,,0.00,weatherlink.com 1.10,2013-11-14 07:43:00,
2013-11-14 01:58:00,33.2,18.0,30.30,ESE,120,1.0,3.0,55,0.00,,,0.00,weatherlink.com 1.10,2013-11-14 07:58:00,
2013-11-14 02:13:00,33.4,18.0,30.30,SW,219,0.0,4.0,54,0.00,,,0.00,weatherlink.com 1.10,2013-11-14 08:13:00,
2013-11-14 02:28:00,33.2,18.0,30.30,South,172,0.0,3.0,55,0.00,,,0.00,weatherlink.com 1.10,2013-11-14 08:28:00,
2013-11-14 02:43:00,33.0,19.0,30.29,SSW,198,1.0,4.0,56,0.00,,,0.00,weatherlink.com 1.10,2013-11-14 08:43:00,
2013-11-14 02:58:00,33.2,18.0,30.29,South,180,0.0,4.0,55,0.00,,,0.00,weatherlink.com 1.10,2013-11-14 08:58:00,
2013-11-14 03:13:00,33.5,19.0,30.29,SSE,158,0.0,4.0,55,0.00,,,0.00,weatherlink.com 1.10,2013-11-14 09:13:00,
2013-11-14 03:28:00,33.4,19.0,30.29,SE,127,0.0,4.0,55,0.00,,,0.00,weatherlink.com 1.10,2013-11-14 09:28:00,
2013-11-14 03:43:00,33.1,19.0,30.28,SE,129,1.0,3.0,56,0.00,,,0.00,weatherlink.com 1.10,2013-11-14 09:43:00,
2013-11-14 03:58:00,32.8,19.0,30.28,SE,131,0.0,3.0,57,0.00,,,0.00,weatherlink.com 1.10,2013-11-14 09:58:00,
2013-11-14 04:13:00,32.0,19.0,30.27,SE,129,0.0,3.0,59,0.00,,,0.00,weatherlink.com 1.10,2013-11-14 10:13:00,
2013-11-14 04:28:00,31.2,19.0,30.27,South,177,0.0,2.0,60,0.00,,,0.00,weatherlink.com 1.10,2013-11-14 10:28:00,
2013-11-14 04:43:00,30.9,19.0,30.27,SE,139,1.0,2.0,61,0.00,,,0.00,weatherlink.com 1.10,2013-11-14 10:43:00,
2013-11-14 04:58:00,30.9,19.0,30.27,SE,136,0.0,3.0,62,0.00,,,0.00,weatherlink.com 1.10,2013-11-14 10:58:00,
2013-11-14 05:13:00,30.8,19.0,30.27,SE,136,0.0,2.0,62,0.00,,,0.00,weatherlink.com 1.10,2013-11-14 11:13:00,
2013-11-14 05:28:00,30.5,19.0,30.27,SE,129,0.0,3.0,63,0.00,,,0.00,weatherlink.com 1.10,2013-11-14 11:28:00,
2013-11-14 05:44:00,30.6,19.0,30.26,SSE,148,3.0,3.0,63,0.00,,,0.00,weatherlink.com 1.10,2013-11-14 11:44:00,
2013-11-14 05:59:00,30.7,19.0,30.26,SE,145,1.0,3.0,63,0.00,,,0.00,weatherlink.com 1.10,2013-11-14 11:59:00,
2013-11-14 06:14:00,30.9,19.0,30.26,SE,143,0.0,3.0,62,0.00,,,0.00,weatherlink.com 1.10,2013-11-14 12:14:00,
2013-11-14 06:29:00,30.8,19.0,30.25,SSE,150,1.0,3.0,63,0.00,,,0.00,weatherlink.com 1.10,2013-11-14 12:29:00,
2013-11-14 06:44:00,30.8,19.0,30.26,SE,129,2.0,4.0,63,0.00,,,0.00,weatherlink.com 1.10,2013-11-14 12:44:00,
2013-11-14 06:59:00,31.0,20.0,30.26,SSE,161,1.0,6.0,63,0.00,,,0.00,weatherlink.com 1.10,2013-11-14 12:59:00,
2013-11-14 07:14:00,31.4,20.0,30.26,South,174,2.0,3.0,63,0.00,,,0.00,weatherlink.com 1.10,2013-11-14 13:14:00,
2013-11-14 07:29:00,32.1,20.0,30.26,SE,134,2.0,4.0,62,0.00,,,0.00,weatherlink.com 1.10,2013-11-14 13:29:00,
2013-11-14 07:44:00,33.0,20.0,30.27,SE,124,1.0,6.0,60,0.00,,,0.00,weatherlink.com 1.10,2013-11-14 13:44:00,
2013-11-14 07:59:00,34.0,21.0,30.27,SW,219,1.0,6.0,59,0.00,,,0.00,weatherlink.com 1.10,2013-11-14 13:59:00,
2013-11-14 08:14:00,35.1,21.0,30.27,SW,226,1.0,4.0,58,0.00,,,0.00,weatherlink.com 1.10,2013-11-14 14:14:00,
2013-11-14 08:29:00,36.5,22.0,30.26,South,177,0.0,4.0,56,0.00,,,0.00,weatherlink.com 1.10,2013-11-14 14:29:00,
2013-11-14 08:44:00,39.1,23.0,30.26,WSW,249,4.0,7.0,53,0.00,,,0.00,weatherlink.com 1.10,2013-11-14 14:44:00,
2013-11-14 08:59:00,41.3,23.0,30.25,SSW,199,1.0,7.0,49,0.00,,,0.00,weatherlink.com 1.10,2013-11-14 14:59:00,
2013-11-14 09:14:00,43.5,23.0,30.25,South,172,3.0,8.0,44,0.00,,,0.00,weatherlink.com 1.10,2013-11-14 15:14:00,
2013-11-14 09:29:00,45.5,23.0,30.24,WSW,253,4.0,9.0,41,0.00,,,0.00,weatherlink.com 1.10,2013-11-14 15:29:00,
2013-11-14 09:44:00,47.1,22.0,30.24,WSW,251,3.0,8.0,38,0.00,,,0.00,weatherlink.com 1.10,2013-11-14 15:44:00,
2013-11-14 09:59:00,48.3,21.0,30.23,WNW,291,2.0,9.0,34,0.00,,,0.00,weatherlink.com 1.10,2013-11-14 15:59:00,
2013-11-14 10:14:00,49.4,21.0,30.23,SW,232,8.0,10.0,33,0.00,,,0.00,weatherlink.com 1.10,2013-11-14 16:14:00,
2013-11-14 10:29:00,49.8,21.0,30.22,South,180,2.0,11.0,32,0.00,,,0.00,weatherlink.com 1.10,2013-11-14 16:29:00,
2013-11-14 10:44:00,50.4,21.0,30.21,South,173,3.0,12.0,31,0.00,,,0.00,weatherlink.com 1.10,2013-11-14 16:44:00,
2013-11-14 10:59:00,51.6,21.0,30.20,SW,224,4.0,9.0,30,0.00,,,0.00,weatherlink.com 1.10,2013-11-14 16:59:00,
2013-11-14 11:14:00,52.8,21.0,30.19,SW,223,4.0,7.0,29,0.00,,,0.00,weatherlink.com 1.10,2013-11-14 17:14:00,
2013-11-14 11:30:00,54.0,21.0,30.18,SSW,204,3.0,9.0,28,0.00,,,0.00,weatherlink.com 1.10,2013-11-14 17:30:00,
2013-11-14 11:45:00,54.9,20.0,30.17,SSE,157,3.0,11.0,25,0.00,,,0.00,weatherlink.com 1.10,2013-11-14 17:45:00,
2013-11-14 12:00:00,55.7,18.0,30.15,SW,221,2.0,12.0,23,0.00,,,0.00,weatherlink.com 1.10,2013-11-14 18:00:00,
2013-11-14 12:15:00,56.1,19.0,30.14,South,169,3.0,9.0,23,0.00,,,0.00,weatherlink.com 1.10,2013-11-14 18:15:00,
2013-11-14 12:30:00,56.9,18.0,30.13,South,174,1.0,8.0,22,0.00,,,0.00,weatherlink.com 1.10,2013-11-14 18:30:00,
2013-11-14 12:45:00,57.2,17.0,30.11,West,266,2.0,10.0,21,0.00,,,0.00,weatherlink.com 1.10,2013-11-14 18:45:00,
2013-11-14 13:00:00,57.8,19.0,30.10,West,263,3.0,8.0,22,0.00,,,0.00,weatherlink.com 1.10,2013-11-14 19:00:00,
2013-11-14 13:15:00,58.5,20.0,30.10,South,172,6.0,9.0,22,0.00,,,0.00,weatherlink.com 1.10,2013-11-14 19:15:00,
2013-11-14 13:30:00,58.5,21.0,30.09,South,180,1.0,8.0,23,0.00,,,0.00,weatherlink.com 1.10,2013-11-14 19:30:00,
2013-11-14 13:45:00,59.5,21.0,30.09,South,174,2.0,9.0,23,0.00,,,0.00,weatherlink.com 1.10,2013-11-14 19:45:00,
2013-11-14 14:00:00,59.9,20.0,30.09,ESE,120,2.0,9.0,21,0.00,,,0.00,weatherlink.com 1.10,2013-11-14 20:00:00,
2013-11-14 14:15:00,60.3,22.0,30.08,SE,127,3.0,7.0,23,0.00,,,0.00,weatherlink.com 1.10,2013-11-14 20:15:00,
2013-11-14 14:30:00,61.1,22.0,30.07,SE,134,3.0,7.0,22,0.00,,,0.00,weatherlink.com 1.10,2013-11-14 20:30:00,
2013-11-14 14:45:00,61.0,22.0,30.07,South,177,2.0,10.0,22,0.00,,,0.00,weatherlink.com 1.10,2013-11-14 20:45:00,
2013-11-14 15:00:00,60.7,21.0,30.06,SE,142,3.0,7.0,22,0.00,,,0.00,weatherlink.com 1.10,2013-11-14 21:00:00,
2013-11-14 15:15:00,60.9,22.0,30.06,SE,130,3.0,8.0,22,0.00,,,0.00,weatherlink.com 1.10,2013-11-14 21:15:00,
2013-11-14 15:30:00,60.5,20.0,30.06,South,191,4.0,10.0,21,0.00,,,0.00,weatherlink.com 1.10,2013-11-14 21:30:00,
2013-11-14 15:45:00,59.8,21.0,30.06,SE,135,3.0,9.0,22,0.00,,,0.00,weatherlink.com 1.10,2013-11-14 21:45:00,
2013-11-14 16:00:00,58.7,21.0,30.06,SSE,148,5.0,10.0,23,0.00,,,0.00,weatherlink.com 1.10,2013-11-14 22:00:00,
2013-11-14 16:15:00,57.8,21.0,30.06,SE,139,2.0,9.0,24,0.00,,,0.00,weatherlink.com 1.10,2013-11-14 22:15:00,
2013-11-14 16:30:00,56.8,21.0,30.06,SE,135,3.0,7.0,25,0.00,,,0.00,weatherlink.com 1.10,2013-11-14 22:30:00,
2013-11-14 16:45:00,56.0,21.0,30.06,SW,228,1.0,5.0,26,0.00,,,0.00,weatherlink.com 1.10,2013-11-14 22:45:00,
2013-11-14 17:00:00,55.1,21.0,30.06,SE,129,2.0,6.0,27,0.00,,,0.00,weatherlink.com 1.10,2013-11-14 23:00:00,
2013-11-14 17:15:00,54.3,21.0,30.06,SE,145,5.0,8.0,27,0.00,,,0.00,weatherlink.com 1.10,2013-11-14 23:15:00,
2013-11-14 17:30:00,54.0,21.0,30.07,South,191,2.0,7.0,27,0.00,,,0.00,weatherlink.com 1.10,2013-11-14 23:30:00,
2013-11-14 17:45:00,53.0,20.0,30.07,SSW,208,1.0,7.0,28,0.00,,,0.00,weatherlink.com 1.10,2013-11-14 23:45:00,
2013-11-14 18:00:00,52.4,22.0,30.07,SE,143,1.0,6.0,30,0.00,,,0.00,weatherlink.com 1.10,2013-11-15 00:00:00,
2013-11-14 18:15:00,52.4,22.0,30.07,South,188,3.0,7.0,31,0.00,,,0.00,weatherlink.com 1.10,2013-11-15 00:15:00,
2013-11-14 18:30:00,52.2,23.0,30.07,SW,224,3.0,5.0,32,0.00,,,0.00,weatherlink.com 1.10,2013-11-15 00:30:00,
2013-11-14 18:45:00,51.9,23.0,30.07,South,190,1.0,7.0,33,0.00,,,0.00,weatherlink.com 1.10,2013-11-15 00:45:00,
2013-11-14 19:00:00,51.7,24.0,30.06,SSW,207,5.0,7.0,34,0.00,,,0.00,weatherlink.com 1.10,2013-11-15 01:00:00,
2013-11-14 19:15:00,51.3,24.0,30.06,SE,125,7.0,7.0,35,0.00,,,0.00,weatherlink.com 1.10,2013-11-15 01:15:00,
2013-11-14 19:30:00,51.0,25.0,30.05,SSW,205,2.0,9.0,36,0.00,,,0.00,weatherlink.com 1.10,2013-11-15 01:30:00,
2013-11-14 19:45:00,50.7,26.0,30.05,SSW,197,3.0,10.0,38,0.00,,,0.00,weatherlink.com 1.10,2013-11-15 01:45:00,
2013-11-14 20:00:00,50.4,26.0,30.06,SW,226,1.0,8.0,39,0.00,,,0.00,weatherlink.com 1.10,2013-11-15 02:00:00,
2013-11-14 20:15:00,50.1,26.0,30.07,South,180,2.0,6.0,40,0.00,,,0.00,weatherlink.com 1.10,2013-11-15 02:15:00,
2013-11-14 20:30:00,49.9,26.0,30.07,SSW,211,2.0,7.0,40,0.00,,,0.00,weatherlink.com 1.10,2013-11-15 02:30:00,
2013-11-14 20:45:00,49.7,27.0,30.07,SE,137,1.0,6.0,41,0.00,,,0.00,weatherlink.com 1.10,2013-11-15 02:45:00,
2013-11-14 21:00:00,49.4,27.0,30.07,SSE,147,2.0,7.0,42,0.00,,,0.00,weatherlink.com 1.10,2013-11-15 03:00:00,
2013-11-14 21:15:00,49.1,27.0,30.07,SE,143,2.0,7.0,43,0.00,,,0.00,weatherlink.com 1.10,2013-11-15 03:15:00,
2013-11-14 21:30:00,48.7,27.0,30.07,ESE,112,3.0,5.0,44,0.00,,,0.00,weatherlink.com 1.10,2013-11-15 03:30:00,
2013-11-14 21:46:00,48.5,28.0,30.07,SE,134,2.0,6.0,45,0.00,,,0.00,weatherlink.com 1.10,2013-11-15 03:46:00,
2013-11-14 22:01:00,48.1,28.0,30.06,SE,139,4.0,6.0,46,0.00,,,0.00,weatherlink.com 1.10,2013-11-15 04:01:00,
2013-11-14 22:16:00,47.8,28.0,30.06,ESE,120,2.0,6.0,46,0.00,,,0.00,weatherlink.com 1.10,2013-11-15 04:16:00,
2013-11-14 22:31:00,47.4,28.0,30.06,SW,223,2.0,4.0,47,0.00,,,0.00,weatherlink.com 1.10,2013-11-15 04:31:00,
2013-11-14 22:46:00,47.0,28.0,30.06,SE,142,1.0,5.0,48,0.00,,,0.00,weatherlink.com 1.10,2013-11-15 04:46:00,
2013-11-14 23:01:00,47.1,28.0,30.05,SE,132,0.0,5.0,47,0.00,,,0.00,weatherlink.com 1.10,2013-11-15 05:01:00,
2013-11-14 23:16:00,46.3,27.0,30.05,ESE,103,1.0,6.0,48,0.00,,,0.00,weatherlink.com 1.10,2013-11-15 05:16:00,
2013-11-14 23:31:00,45.8,27.0,30.05,South,175,0.0,5.0,49,0.00,,,0.00,weatherlink.com 1.10,2013-11-15 05:31:00,
2013-11-14 23:46:00,45.5,28.0,30.05,SSE,150,2.0,3.0,50,0.00,,,0.00,weatherlink.com 1.10,2013-11-15 05:46:00,